sat.trackr.live / text

‹ back to catalog

STARLINK-35028

NORAD 65381 · 2025-191C

PAYLOAD ACTIVE UNKNOWN

§ Identity

Operator
Country
US
Launch date
2025-08-30
Launch site
AFWTR
Launch vehicle
Mass (kg)
RCS (m²)

Purposes: comms

External: N2YO · Heavens-Above · Gunter

§ Orbital elements

Epoch: 2026-05-25T02:44:09.471264Z

Period
95.64 min
Inclination
97.4523°
Eccentricity
0.0002259
Mean motion
15.05659516 rev/d
Perigee alt
547.9 km
Apogee alt
551.0 km
Semi-major
6,927.6 km
B*
3.1367e-4
RAAN
16.5510°
Arg perigee
101.7139°
Mean anomaly
258.4342°
Rev number
4,177

§ Raw data

STARLINK-350281 65381U 25191C   26145.11399851  .00004471  00000+0  31367-3 0  99942 65381  97.4523  16.5510 0002259 101.7139 258.4342 15.05659516 41773

JSON: /api/v1/satellites/65381 · /tle

For live sub-satellite position, see the globe view (requires WebGL).

§ Visibility from observer

Set your observer location to see the next 7 days of passes ≥ 10°. The values pass through the URL so the page stays shareable.

No JS? Fill the form by hand. The geolocation button needs JavaScript.